Temp
49 45 42 48 49 55 56 55 50 48 51 49 46 46 46 48 48 47 47 46 47 48 50 51 51 50 52 52 53 52 54 52 56 56 57 55 52 53 53 53 53 53 52 53
44 41 48 54 56 57 56 53 47 51 51 48 44 41 42 46 47 49 49 48 47 48 47 49 48 47 47 47 49 51 51 51 51 51 50 53 53 50 50 50 51 51 51 51
40 46 53 54 52 53 53 53 47 47 47 48 47 40 42 49 50 51 51 51 50 47 46 47 47 45 45 45 47 49 49 49 49 49 50 48 47 48 48 48 48 49 50 50
44 50 51 47 51 53 48 55 56 49 45 34 45 31 41 46 46 49 49 49 49 47 47 47 46 45 45 45 47 49 48 50 48 47 47 45 45 44 43 43 45 46 47 48
43 46 46 46 50 55 51 58 55 53 46 45 44 35 36 46 42 46 48 49 48 47 48 46 46 45 46 45 46 46 47 47 46 45 45 45 44 42 43 43 43 44 45 46
47 51 51 50 55 57 57 55 51 49 44 34 44 38 33 40 46 49 51 51 49 47 47 47 48 47 45 45 45 46 46 45 45 44 43 42 41 42 42 41 41 42 43 44
42 46 49 54 50 54 56 47 33 33 31 32 44 38 48 48 53 52 51 51 49 49 47 46 46 46 45 45 45 46 46 45 45 44 43 42 41 41 40 40 40 41 42 43
36 35 48 53 51 48 51 45 33 31 30 31 44 35 41 52 56 56 55 53 51 49 49 47 46 46 46 45 45 46 46 45 45 44 43 42 42 41 41 40 40 40 41 42
35 39 51 54 56 56 49 44 53 40 40 36 41 41 48 51 52 52 52 51 49 49 48 47 46 47 46 45 45 45 44 44 44 43 42 42 41 41 40 40 41 40 41 45
45 37 50 52 55 53 53 56 42 40 33 29 34 35 38 44 45 49 49 49 49 49 48 48 47 47 45 45 44 44 44 44 43 43 42 42 41 41 41 40 39 39 40 41
49 44 42 50 47 44 45 46 44 46 39 38 33 38 48 47 49 48 50 51 49 48 49 48 47 46 45 44 43 43 44 43 42 42 41 41 40 40 40 39 38 38 39 39
47 42 35 42 48 50 47 46 45 40 37 35 34 37 51 53 53 52 51 51 51 50 49 49 47 45 44 43 43 44 43 42 42 42 41 40 40 39 38 38 38 38 38 39
46 37 31 37 42 45 42 45 45 43 39 35 33 37 50 53 53 53 51 51 51 50 49 48 46 45 45 44 44 44 43 42 42 42 40 40 39 38 37 37 37 38 37 38
48 39 39 35 37 39 37 42 43 43 33 33 38 37 43 47 49 51 51 52 51 51 49 48 47 46 46 45 45 43 42 42 41 41 40 38 38 37 37 37 37 37 37 37
42 35 37 42 45 44 42 43 44 42 42 38 40 41 44 49 50 52 52 51 50 49 48 48 47 46 44 44 43 43 42 42 41 40 39 38 38 38 37 36 36 36 36 36
37 33 37 36 44 43 40 43 43 45 42 42 42 40 50 54 53 51 51 50 49 49 49 49 48 47 45 45 44 44 42 41 41 40 39 39 38 37 36 36 35 35 35 35
31 32 31 34 38 38 31 38 42 41 43 44 38 44 47 48 50 50 50 51 50 50 49 49 48 47 47 45 44 42 42 41 40 40 39 39 38 36 36 36 35 34 33 33
31 32 32 28 33 21 42 50 51 46 48 48 46 46 49 51 53 54 54 52 51 51 50 49 49 47 46 44 43 41 42 41 40 38 38 38 37 36 35 34 33 33 33 32
38 33 27 23 29 36 38 44 44 40 44 47 46 46 50 53 49 44 54 55 54 52 51 50 50 47 44 44 42 42 40 40 39 38 37 37 36 35 34 33 32 32 32 32
41 38 33 23 24 22 39 46 48 48 36 51 50 49 48 48 40 44 52 55 54 53 51 48 46 45 44 42 43 41 39 38 37 37 37 36 36 35 33 32 31 32 31 31
29 31 28 30 22 31 41 49 49 36 40 50 51 51 49 47 51 55 53 52 52 50 48 46 46 45 44 42 43 40 38 37 38 38 36 36 35 33 33 32 31 31 30 31
31 28 27 27 24 26 44 43 42 48 48 50 47 51 51 54 47 49 51 50 48 47 45 47 45 43 42 43 42 39 38 38 38 37 35 34 34 36 34 31 31 31 29 29
30 34 34 35 35 42 42 46 50 47 47 45 46 51 53 46 45 49 49 47 47 46 46 47 45 41 41 42 42 38 37 38 37 35 33 32 32 32 32 30 29 29 29 27
35 34 31 35 40 42 45 47 45 45 45 46 47 49 51 46 46 48 47 46 45 46 45 46 42 41 39 40 41 40 38 38 36 34 32 31 31 31 31 31 30 29 27 27
29 32 28 27 36 43 44 45 46 47 48 48 48 49 50 47 47 47 46 46 46 46 45 44 43 41 39 39 38 39 38 37 35 33 32 31 31 30 30 30 29 30 29 30
32 29 26 24 38 36 39 48 48 46 47 47 47 46 48 49 47 47 46 47 46 44 44 44 42 41 38 39 38 37 38 37 35 32 31 31 30 29 29 28 28 33 33 33
MSLP
1011.17 1011.47 1010.97 1010.54 1010.23 1010.26 1010.37 1010.90 1012.12 1013.41 1014.05 1015.34 1017.02 1018.47 1019.60 1020.28 1020.95 1021.48 1022.05 1022.53 1022.88 1023.14 1023.36 1023.36 1023.20 1023.09 1022.86 1022.87 1022.87 1022.64 1022.41 1022.60 1022.30 1022.27 1022.36 1022.77 1023.39 1023.94 1023.97 1024.02 1023.97 1023.48 1023.51 1023.02
1012.01 1011.41 1011.09 1010.69 1010.30 1010.11 1010.28 1011.17 1012.49 1013.80 1014.60 1015.60 1017.76 1019.36 1020.19 1020.62 1020.98 1021.16 1021.55 1022.37 1022.92 1023.33 1023.68 1023.90 1023.92 1023.64 1023.43 1023.62 1023.75 1023.61 1023.45 1023.37 1023.39 1023.42 1023.16 1023.72 1024.30 1024.65 1025.07 1024.66 1024.56 1024.05 1023.84 1023.57
1012.11 1011.53 1010.84 1010.65 1010.31 1010.12 1010.07 1010.61 1011.63 1012.73 1014.99 1016.45 1017.65 1019.86 1020.39 1020.61 1020.90 1021.20 1021.81 1022.16 1022.80 1023.21 1023.58 1024.01 1024.03 1024.22 1024.15 1024.26 1024.54 1024.32 1024.24 1024.22 1024.22 1024.14 1023.83 1024.66 1025.02 1025.19 1025.18 1025.08 1024.94 1024.77 1024.54 1024.30
1011.90 1011.10 1010.94 1010.50 1009.98 1009.76 1009.76 1009.60 1011.05 1011.99 1013.91 1016.59 1017.00 1019.01 1019.54 1019.92 1020.37 1020.88 1021.42 1022.04 1022.69 1023.08 1023.62 1023.96 1024.52 1024.52 1024.56 1024.80 1024.87 1024.81 1024.78 1024.73 1024.78 1024.72 1024.95 1025.14 1025.50 1025.73 1025.93 1025.88 1025.79 1025.47 1025.20 1025.04
1011.13 1010.62 1010.57 1010.30 1008.91 1009.48 1009.48 1009.90 1011.29 1012.55 1013.87 1015.44 1017.12 1017.89 1017.73 1018.92 1019.76 1020.01 1020.62 1021.64 1022.49 1022.99 1023.38 1023.85 1024.20 1024.53 1024.83 1024.90 1025.09 1025.03 1025.06 1025.26 1025.52 1025.51 1025.46 1025.44 1025.77 1026.10 1026.14 1026.04 1025.91 1025.73 1025.52 1025.39
1010.90 1010.00 1009.70 1009.01 1008.86 1009.02 1009.86 1010.89 1012.44 1014.23 1015.88 1016.13 1014.92 1016.27 1016.91 1016.68 1016.59 1018.18 1019.61 1020.72 1021.85 1022.63 1023.13 1023.53 1024.19 1024.49 1024.94 1025.16 1025.32 1025.32 1025.47 1025.80 1025.83 1025.94 1026.00 1025.99 1026.20 1026.36 1026.33 1026.39 1026.25 1026.10 1025.97 1025.74
1010.78 1009.78 1008.94 1008.46 1008.80 1008.99 1009.39 1011.13 1014.22 1015.63 1016.29 1014.46 1014.60 1015.67 1013.50 1014.41 1015.23 1015.96 1017.56 1019.61 1021.08 1021.95 1022.60 1023.37 1024.08 1024.39 1024.75 1025.08 1025.33 1025.50 1025.52 1025.85 1025.94 1026.05 1026.12 1026.12 1026.32 1026.51 1026.69 1026.67 1026.65 1026.51 1026.26 1026.06
1010.44 1009.81 1008.53 1007.75 1007.77 1008.09 1008.68 1009.78 1011.31 1011.97 1013.39 1013.92 1014.46 1013.91 1012.41 1012.84 1014.10 1015.88 1017.30 1018.74 1020.33 1021.36 1022.17 1023.11 1023.57 1023.95 1024.32 1024.71 1025.04 1025.16 1025.37 1025.76 1025.99 1026.17 1026.44 1026.57 1026.70 1026.83 1026.86 1026.93 1026.88 1026.81 1026.68 1026.45
1010.15 1009.10 1007.95 1007.31 1007.30 1007.69 1008.71 1009.53 1008.80 1011.20 1012.61 1013.71 1013.30 1012.85 1012.38 1012.24 1013.76 1015.28 1016.91 1018.32 1019.54 1020.69 1021.74 1022.62 1023.23 1023.67 1024.05 1024.57 1024.95 1025.11 1025.41 1025.79 1026.09 1026.37 1026.56 1026.87 1027.08 1027.00 1027.03 1027.08 1027.05 1027.12 1027.01 1026.67
1009.19 1009.03 1008.09 1007.48 1007.37 1007.74 1007.55 1008.17 1010.00 1011.04 1012.00 1012.28 1011.94 1012.03 1011.53 1012.35 1013.49 1014.51 1015.83 1017.17 1018.83 1020.07 1021.26 1022.32 1022.94 1023.35 1023.86 1024.50 1024.82 1024.97 1025.18 1025.66 1026.06 1026.20 1026.70 1027.11 1027.17 1027.34 1027.38 1027.55 1027.73 1027.58 1027.29 1026.95
1009.08 1009.14 1008.69 1007.85 1007.53 1007.48 1008.08 1008.43 1009.11 1009.76 1010.73 1010.80 1011.38 1009.66 1009.33 1010.66 1011.78 1013.16 1014.53 1015.88 1017.60 1019.17 1020.45 1021.64 1022.40 1023.03 1023.68 1024.37 1024.68 1025.00 1025.31 1025.78 1026.19 1026.40 1026.88 1027.21 1027.54 1027.82 1027.90 1027.93 1027.74 1027.54 1027.29 1027.14
1008.91 1008.95 1008.93 1008.20 1007.94 1007.63 1007.79 1008.17 1008.84 1009.61 1010.38 1010.71 1010.48 1009.44 1008.87 1008.82 1010.10 1011.33 1013.07 1014.83 1016.85 1018.23 1019.56 1020.73 1021.67 1022.55 1023.54 1024.10 1024.49 1024.92 1025.46 1025.83 1026.25 1026.57 1027.01 1027.44 1027.75 1027.96 1028.10 1027.97 1027.86 1027.77 1027.74 1027.61
1008.53 1008.93 1009.31 1008.93 1008.66 1008.34 1008.22 1008.34 1008.55 1009.09 1009.57 1010.01 1010.28 1009.65 1009.05 1009.89 1010.89 1011.83 1013.15 1014.70 1016.14 1017.63 1019.10 1020.25 1021.29 1022.23 1023.10 1023.78 1024.30 1024.80 1025.27 1025.85 1026.34 1026.69 1027.13 1027.52 1027.77 1027.98 1028.20 1028.17 1028.14 1028.02 1028.01 1027.79
1008.95 1008.53 1008.48 1008.19 1007.85 1008.05 1008.50 1008.45 1008.65 1009.13 1009.87 1009.56 1009.08 1009.79 1009.86 1010.08 1010.62 1011.74 1013.03 1014.31 1015.50 1016.95 1018.28 1019.46 1020.78 1021.81 1022.81 1023.50 1024.10 1024.67 1025.32 1025.73 1026.29 1026.85 1027.27 1027.60 1027.76 1028.00 1028.33 1028.51 1028.46 1028.28 1028.09 1027.88
1009.91 1009.42 1008.78 1007.99 1007.61 1007.72 1007.74 1007.94 1008.34 1008.76 1008.66 1008.83 1008.40 1009.03 1009.01 1009.02 1009.60 1010.20 1011.79 1013.67 1015.30 1016.58 1017.75 1018.80 1020.01 1021.27 1022.39 1023.31 1024.00 1024.56 1025.17 1025.72 1026.19 1026.74 1027.30 1027.70 1027.85 1028.03 1028.28 1028.49 1028.52 1028.42 1028.16 1027.95
1011.90 1010.39 1009.21 1008.63 1007.86 1007.31 1007.48 1007.41 1007.56 1007.40 1007.95 1007.69 1008.01 1008.16 1007.90 1008.27 1010.01 1010.89 1011.74 1012.81 1014.06 1015.46 1016.87 1018.18 1019.44 1020.70 1021.91 1022.68 1023.51 1024.24 1025.05 1025.65 1026.00 1026.50 1027.11 1027.65 1027.80 1028.02 1028.37 1028.57 1028.63 1028.40 1028.24 1028.10
1014.37 1011.77 1010.47 1009.06 1008.23 1007.96 1007.45 1006.10 1006.33 1006.79 1006.61 1006.88 1007.19 1007.17 1007.85 1008.72 1009.19 1009.73 1010.97 1011.80 1012.80 1014.28 1015.81 1017.28 1018.60 1019.95 1021.13 1022.00 1022.98 1024.02 1024.75 1025.36 1025.90 1026.30 1026.97 1027.72 1027.96 1028.32 1028.54 1028.56 1028.50 1028.35 1028.29 1028.14
1013.88 1013.05 1011.95 1010.03 1009.14 1008.13 1004.56 1004.72 1004.89 1005.37 1005.21 1005.20 1005.65 1006.16 1006.68 1007.01 1007.32 1008.02 1009.31 1010.46 1011.82 1013.45 1015.07 1016.65 1017.96 1019.48 1020.65 1021.81 1022.98 1023.77 1024.49 1025.14 1025.68 1026.41 1027.12 1027.72 1028.09 1028.38 1028.38 1028.44 1028.48 1028.54 1028.40 1028.20
1012.45 1013.24 1012.12 1010.66 1009.22 1006.76 1005.28 1004.46 1004.33 1004.73 1003.66 1004.34 1005.03 1005.71 1006.06 1006.45 1007.62 1008.64 1009.48 1010.34 1010.79 1012.12 1013.89 1015.33 1016.92 1018.61 1020.23 1021.53 1022.60 1023.38 1024.36 1025.01 1025.65 1026.52 1027.22 1027.67 1028.02 1028.31 1028.39 1028.52 1028.66 1028.64 1028.47 1028.54
1010.48 1011.10 1011.51 1010.65 1009.00 1006.71 1003.46 1004.08 1003.72 1004.15 1002.71 1003.01 1003.84 1004.54 1005.29 1006.56 1007.53 1007.75 1008.39 1009.39 1010.93 1012.24 1013.77 1015.46 1017.09 1018.60 1020.05 1021.37 1022.21 1023.16 1024.14 1024.90 1025.82 1026.48 1027.02 1027.52 1028.05 1028.23 1028.37 1028.58 1028.76 1028.75 1028.86 1028.90
1010.02 1010.10 1009.89 1009.18 1008.32 1005.20 1003.60 1002.78 1003.34 1004.25 1000.26 1001.27 1002.07 1003.27 1004.30 1004.72 1004.77 1005.68 1007.54 1009.33 1010.45 1011.66 1013.60 1015.36 1016.66 1017.85 1019.36 1020.92 1021.83 1022.95 1023.99 1024.92 1025.52 1026.27 1026.88 1027.47 1027.92 1028.22 1028.43 1028.61 1028.78 1028.99 1029.16 1029.06
1009.30 1008.80 1008.61 1008.36 1007.65 1005.20 1002.90 1003.06 1002.47 1001.09 1001.07 1001.39 1001.95 1002.52 1003.15 1003.43 1004.31 1005.51 1006.75 1008.60 1010.01 1011.69 1013.57 1014.85 1016.33 1018.00 1019.62 1020.68 1021.56 1022.82 1023.83 1024.53 1025.44 1026.21 1026.89 1027.42 1027.80 1028.22 1028.44 1028.61 1028.93 1029.23 1029.29 1029.18
1009.44 1008.82 1007.36 1006.08 1004.32 1002.99 1002.16 1001.72 1001.10 1000.81 1001.08 1001.51 1001.58 1001.82 1002.48 1003.58 1004.17 1005.17 1006.83 1008.37 1009.54 1010.96 1012.80 1014.39 1015.90 1018.03 1019.53 1020.46 1021.21 1022.40 1023.48 1024.39 1025.32 1026.16 1026.92 1027.36 1027.75 1028.16 1028.51 1028.81 1029.16 1029.34 1029.38 1029.34
1010.23 1009.47 1008.25 1006.80 1003.77 1002.67 1002.05 1001.64 1001.30 1001.21 1001.44 1001.53 1001.65 1001.75 1002.43 1003.39 1004.17 1005.13 1006.60 1008.03 1009.59 1011.00 1012.52 1014.13 1016.05 1017.89 1019.21 1020.14 1021.08 1021.89 1023.12 1024.10 1025.07 1026.05 1026.79 1027.22 1027.63 1028.19 1028.65 1028.96 1029.24 1029.35 1029.44 1029.41
1012.07 1010.92 1009.94 1008.34 1005.37 1003.16 1001.91 1001.26 1001.03 1001.18 1001.16 1001.39 1001.50 1001.65 1002.25 1003.33 1004.24 1004.79 1006.43 1007.83 1008.92 1010.48 1012.28 1013.71 1015.26 1017.02 1018.38 1019.75 1020.99 1021.86 1022.86 1023.82 1024.93 1025.77 1026.51 1027.12 1027.55 1028.12 1028.72 1029.05 1029.21 1029.22 1029.33 1029.24
1011.30 1010.19 1010.51 1007.59 1005.67 1005.52 1004.19 1002.37 1000.91 1001.16 1001.01 1001.09 1001.42 1001.91 1002.36 1002.59 1003.67 1004.95 1006.08 1007.18 1008.53 1010.32 1011.99 1013.61 1015.23 1016.48 1018.10 1019.54 1020.73 1021.75 1022.61 1023.49 1024.47 1025.47 1026.27 1026.95 1027.49 1028.15 1028.70 1029.07 1029.32 1029.20 1029.11 1029.18
Wind_Speed
2 4 9 8 4 1 5 12 6 2 3 8 5 14 9 7 7 8 8 7 7 8 4 5 7 7 10 11 12 13 12 10 6 4 5 8 8 7 8 8 11 11 10 11
3 8 5 4 5 4 6 10 3 7 4 9 9 7 3 6 5 10 13 11 11 7 5 6 6 8 9 8 9 11 11 11 8 4 3 5 5 6 4 6 8 11 12 12
7 5 6 9 5 7 7 17 9 11 9 10 15 4 3 4 3 6 5 7 8 11 10 6 7 7 7 9 7 9 10 10 9 8 7 4 3 4 5 7 7 9 10 11
7 7 4 4 11 8 12 7 12 20 9 8 5 6 9 11 7 6 6 8 9 9 7 7 6 7 7 7 6 9 8 10 8 7 8 10 8 8 3 3 3 4 6 7
8 6 8 9 11 9 6 8 12 6 7 9 6 4 6 13 9 15 12 10 10 9 11 10 9 8 6 6 6 6 8 9 7 7 6 7 9 3 2 3 5 6 5 6
7 3 6 9 6 6 8 13 14 9 5 3 17 8 7 17 26 18 15 14 13 10 9 8 7 8 7 6 6 6 8 6 6 7 7 8 8 6 6 5 5 4 3 4
3 5 3 4 6 4 14 14 4 4 5 10 10 6 11 23 18 27 23 17 13 11 10 10 9 8 7 8 7 6 7 7 6 7 7 8 8 7 7 5 4 5 5 4
7 5 8 5 7 10 16 13 9 15 9 2 7 10 7 18 18 18 18 17 15 13 11 11 10 8 8 8 7 7 7 7 7 7 7 6 7 4 4 5 4 4 4 4
5 7 2 4 5 10 6 13 11 7 1 4 6 4 4 6 16 21 21 18 18 16 13 12 9 9 8 7 7 8 8 7 7 7 6 7 6 7 6 7 5 4 5 6
5 3 3 3 4 1 12 13 7 2 11 8 6 7 8 16 22 23 23 22 20 17 14 12 11 10 7 7 7 7 7 8 7 8 6 5 6 7 6 6 6 5 4 6
7 3 3 4 6 9 3 7 2 5 5 13 6 10 14 22 25 27 26 24 23 19 17 15 11 9 8 7 7 7 7 8 7 7 6 7 6 6 5 5 5 6 6 6
7 5 5 8 1 2 4 7 6 10 12 1 2 7 4 24 29 29 27 25 21 19 17 15 14 12 10 8 7 7 7 8 7 7 7 7 6 6 5 6 6 5 5 5
8 4 3 4 4 2 4 5 4 3 4 8 6 4 2 11 14 16 21 22 20 18 16 13 12 12 11 8 7 7 7 7 7 7 7 6 6 6 6 6 6 5 5 5
4 6 9 13 6 6 5 4 5 5 3 4 8 5 5 11 16 18 20 21 20 18 18 16 13 12 11 10 9 8 7 8 7 7 6 6 6 6 6 5 5 5 5 5
1 8 6 5 9 6 7 9 10 9 8 9 6 9 14 18 22 25 20 21 20 20 18 18 16 13 11 10 8 7 8 8 7 7 7 6 6 6 5 5 5 4 5 5
10 6 7 7 8 9 7 9 12 17 7 9 3 6 8 15 9 15 21 23 24 21 20 18 17 15 14 13 11 9 9 8 7 7 7 6 6 6 6 5 4 4 5 5
8 5 1 9 4 6 2 15 14 5 8 9 14 7 9 11 17 21 22 26 26 24 22 21 20 17 15 14 12 12 11 8 8 8 7 6 5 5 4 4 4 5 5 4
11 5 3 3 4 3 13 11 15 17 15 18 7 10 16 20 24 24 23 24 25 24 22 20 17 14 13 11 10 10 10 9 9 7 7 6 5 5 5 5 5 5 4 5
20 7 5 4 7 6 2 6 9 9 20 9 13 8 13 16 7 3 16 21 25 24 21 20 18 16 12 14 12 13 10 9 9 7 7 6 5 5 5 5 5 4 5 5
16 18 9 2 8 12 10 6 4 7 18 11 15 16 14 14 13 8 21 23 19 20 19 18 17 15 15 12 13 14 11 10 8 8 7 6 5 5 5 4 4 4 3 4
6 7 17 15 6 11 5 10 9 8 12 11 20 18 19 19 13 20 19 17 18 21 21 17 19 19 17 14 15 13 11 10 9 9 7 6 6 5 5 4 3 4 4 4
6 9 7 4 8 19 7 5 18 15 6 4 11 16 21 20 12 19 24 22 24 23 19 20 19 16 14 15 15 13 12 9 10 9 8 7 6 4 4 5 4 4 4 4
10 7 7 13 11 3 6 10 12 4 4 5 7 9 19 12 12 23 23 23 24 25 21 19 19 17 14 14 14 14 10 11 11 10 8 6 6 5 4 5 4 3 4 3
7 16 5 6 7 7 7 7 5 4 5 4 5 8 13 14 17 20 20 21 20 20 21 18 19 18 15 12 11 12 13 11 11 10 8 6 6 6 5 3 3 3 3 3
9 13 10 14 23 7 7 7 5 8 8 6 6 10 16 15 18 20 19 20 20 21 19 20 20 18 16 13 11 13 12 12 10 9 7 6 5 5 4 3 3 3 2 4
15 20 11 12 17 13 20 14 9 9 10 10 10 7 12 21 21 18 20 19 21 21 19 17 17 17 16 14 13 12 12 12 12 9 6 5 5 4 4 4 3 6 7 9
Wind_Direction
222 141 212 212 176 20 213 163 132 68 94 96 112 134 140 131 124 136 132 126 113 100 95 64 57 50 62 52 50 47 49 43 44 42 73 59 67 45 49 40 33 37 30 29
43 233 198 199 211 183 135 150 129 66 57 82 118 79 109 149 169 167 157 149 146 134 108 90 80 65 56 59 54 56 54 49 44 35 45 57 68 60 49 50 40 37 36 34
171 224 186 178 214 175 179 185 177 144 102 53 114 28 170 211 160 145 158 154 148 150 138 117 86 78 77 70 65 65 62 62 58 53 63 66 81 67 51 38 38 27 30 32
225 225 177 212 206 172 202 185 165 139 132 167 217 207 206 192 197 194 177 169 166 155 139 134 129 102 95 94 88 82 74 71 58 54 76 77 79 76 31 29 13 18 22 26
238 189 174 207 214 190 195 144 139 150 91 123 203 112 269 165 196 207 189 185 173 167 158 150 144 133 125 111 103 93 84 77 70 72 77 79 77 85 68 36 32 21 14 18
234 225 181 202 181 198 133 93 52 50 32 311 196 176 209 186 201 190 189 181 173 169 156 138 137 137 127 120 109 104 99 91 81 77 73 81 80 68 58 37 36 14 2 10
258 229 231 161 121 123 128 118 101 165 206 221 175 192 215 201 193 189 184 173 172 167 155 150 157 150 144 137 131 127 114 100 92 82 70 68 68 64 60 44 35 24 14 14
177 260 179 189 175 170 169 154 155 195 197 168 104 239 255 181 192 179 179 169 164 167 165 171 169 159 152 148 135 122 115 111 99 89 81 76 72 70 61 50 36 28 18 2
187 249 238 170 142 157 205 191 192 95 98 143 204 226 300 185 165 166 175 170 176 174 174 178 169 164 154 152 153 139 125 116 110 104 90 74 68 64 56 41 33 20 10 16
227 246 233 149 126 97 186 166 158 204 174 199 243 227 202 155 169 177 175 177 178 177 174 179 173 163 154 157 148 132 126 118 117 101 92 82 68 57 52 48 36 23 14 17
191 187 296 147 189 171 141 176 201 145 176 213 212 241 169 177 175 177 183 179 176 176 176 177 171 161 152 148 147 138 123 120 113 106 100 82 72 64 62 58 37 27 19 14
194 160 200 217 208 172 161 185 169 191 214 234 188 256 209 173 178 180 180 175 174 174 173 171 162 153 154 154 148 143 132 121 123 116 103 94 89 72 59 48 38 28 22 9
181 221 104 348 5 92 198 202 162 107 79 206 170 241 44 168 176 178 172 172 169 169 165 160 151 158 160 157 153 144 136 129 127 112 104 93 81 73 55 45 32 23 14 15
269 161 187 215 199 143 166 184 160 147 160 164 228 170 158 165 173 172 174 174 168 169 166 161 159 163 164 162 158 145 140 135 130 119 111 102 90 77 67 54 35 23 12 21
44 221 193 233 184 173 173 177 180 196 204 208 180 180 196 185 181 185 169 162 165 173 169 168 164 165 162 160 154 143 137 137 137 123 112 106 100 87 76 55 39 24 21 13
340 281 182 213 203 180 181 203 196 215 212 255 171 233 200 191 136 160 173 168 175 174 172 169 167 163 168 165 158 148 147 145 135 123 113 111 92 82 70 58 42 40 25 11
288 311 126 231 185 123 293 211 208 197 205 184 218 205 155 168 178 179 178 179 177 175 171 170 171 169 169 164 155 156 153 141 131 121 118 117 102 94 80 64 49 38 23 14
251 309 297 214 87 179 248 164 198 206 218 216 207 178 180 180 190 190 185 178 174 171 171 170 168 163 157 148 151 142 141 138 130 122 123 123 116 104 78 60 47 31 18 18
212 207 261 164 204 254 215 222 170 174 250 217 206 196 190 190 144 151 178 185 179 172 170 171 165 154 147 153 151 140 138 136 127 134 135 131 127 112 90 64 41 26 30 11
202 205 194 140 185 219 249 193 145 81 268 216 201 197 173 149 185 189 184 183 175 166 162 158 151 146 146 152 148 142 145 140 146 148 142 135 131 116 95 78 55 34 28 4
165 188 203 217 245 274 232 170 130 154 261 196 185 189 171 186 184 192 168 168 164 159 154 146 150 156 155 151 147 146 148 160 152 138 133 131 126 113 111 91 66 47 22 9
222 175 191 186 203 254 192 103 169 226 284 189 183 187 192 196 163 156 160 158 154 155 149 151 148 149 152 153 149 151 160 149 143 138 132 128 123 112 100 87 61 53 30 19
242 230 246 189 213 258 199 185 223 220 232 229 180 190 194 162 156 158 159 159 159 155 154 153 148 146 152 157 155 152 155 147 144 138 138 133 124 110 99 94 73 57 34 27
301 19 314 321 237 216 214 238 251 196 217 221 225 189 179 168 158 160 156 155 153 154 152 148 145 151 154 154 153 152 151 148 145 143 142 137 126 115 103 96 95 84 53 35
256 326 326 298 290 298 278 231 213 219 219 214 210 176 178 159 168 156 157 157 155 153 151 152 153 156 153 149 146 150 150 146 147 143 141 137 128 122 112 107 109 87 69 76
245 256 250 257 303 315 299 292 220 220 212 214 181 168 172 166 161 160 158 157 152 151 149 148 150 146 147 149 149 150 151 151 147 144 147 147 136 130 125 119 95 51 75 66